Uni Wealth — VRFV4 — position and weather

sailwx.info

Track history (hours):
 
Tides and Currents Weather Stations Pressure Air Temp Water Temp Dewpoint Dewpoint Depression Visibility Wind Speed Wind Dir Waves Ship Positions

Uni Wealth

Last reported at 2014-Sep-03 01:33 UTC. Time now 2014-Sep-03 02:11 UTC.
Position N 24°12' E 118°22'.

Length 170 m; draft 9.6 m.

Type: Cargo ship. MMSI: 477621200.

Date/timePositionNaut miles runAvg speedWind from/ knotsBaromVisibWave heightAir tempDewpointWater temp
2014-Sep-03 01:33N 24°12' E 118°22'1211.2
2014-Sep-03 00:30N 24°14' E 118°35'2512.7
2014-Sep-02 22:34N 24°19' E 119°01'1812.3
2014-Sep-02 21:08N 24°29' E 119°18'912.4
2014-Sep-02 20:24N 24°35' E 119°25'1511.9
2014-Sep-02 19:08N 24°45' E 119°37'2011.9
2014-Sep-02 17:29N 24°57' E 119°54'1512.0
2014-Sep-02 16:16N 25°07' E 120°07'1312.2
2014-Sep-02 15:11N 25°16' E 120°17'6811.7
2014-Sep-02 09:23N 25°60' E 121°14'1011.3
2014-Sep-02 08:32N 26°06' E 121°22'  
Track history (hours):
 
Tides and Currents Weather Stations Pressure Air Temp Water Temp Dewpoint Dewpoint Depression Visibility Wind Speed Wind Dir Waves Ship Positions

Uni Wealth

Last reported at 2014-Sep-03 01:33 UTC. Time now 2014-Sep-03 02:11 UTC.
Position N 24°12' E 118°22'.

Length 170 m; draft 9.6 m.

Type: Cargo ship. MMSI: 477621200.

Date/timePositionNaut miles runAvg speedWind from/ knotsBaromVisibWave heightAir tempDewpointWater temp
2014-Sep-03 01:33N 24°12' E 118°22'1211.2
2014-Sep-03 00:30N 24°14' E 118°35'2512.7
2014-Sep-02 22:34N 24°19' E 119°01'1812.3
2014-Sep-02 21:08N 24°29' E 119°18'912.4
2014-Sep-02 20:24N 24°35' E 119°25'1511.9
2014-Sep-02 19:08N 24°45' E 119°37'2011.9
2014-Sep-02 17:29N 24°57' E 119°54'1512.0
2014-Sep-02 16:16N 25°07' E 120°07'1312.2
2014-Sep-02 15:11N 25°16' E 120°17'6811.7
2014-Sep-02 09:23N 25°60' E 121°14'1011.3
2014-Sep-02 08:32N 26°06' E 121°22'  

Dump ship's entire track history